GW0126 Weather Reports


Display with metric or nautical units.
time (UTC)temp
F
wind
direction
speed
MPH
gust
MPH
rain 1hr
in
rain 24hr
in
rain mn
in
humidity
%
barometer
mb
20260901031103 59 125 2.0 3.0 0.00 0.00 0.05 98 1013.3
20260901030552 59 126 1.0 2.0 0.01 0.00 0.05 99 1013.3
20260901030121 59 204 2.0 3.0 0.01 0.00 0.05 99 1013.5
20260901025532 59 128 1.0 4.0 0.01 0.00 0.05 99 1013.3
20260901025022 59 156 1.0 4.0 0.01 0.00 0.05 99 1013.5
20260901024514 59 170 1.0 3.0 0.01 0.00 0.05 99 1013.2
20260901024002 59 120 1.0 3.0 0.01 0.00 0.05 99 1013.3
20260901023454 59 167 0.0 2.0 0.01 0.00 0.05 99 1013.1
20260901022942 59 125 1.0 3.0 0.01 0.00 0.05 99 1013.3
20260901022434 58 177 1.0 2.0 0.01 0.00 0.05 99 1013.1
20260901021922 58 200 1.0 2.0 0.01 0.00 0.05 99 1013.0
20260901021412 58 123 0.0 2.0 0.00 0.00 0.04 99 1013.3
20260901015332 58 154 1.0 1.0 0.00 0.00 0.04 99 1012.7
20260901014312 58 215 0.0 2.0 0.04 0.00 0.04 99 1013.2
20260901013802 58 261 1.0 4.0 0.04 0.00 0.04 99 1012.8
20260901013252 58 154 1.0 3.0 0.04 0.00 0.04 99 1012.6
20260901012742 58 341 1.0 2.0 0.04 0.00 0.04 98 1012.8
20260901011723 58 209 0.0 1.0 0.04 0.00 0.04 98 1012.8
20260901005134 60 169 2.0 3.0 0.03 0.00 0.03 94 1012.9
20260901004622 60 261 3.0 4.0 0.00 0.00 0.00 93 1012.8
20260901004113 59 285 2.0 3.0 0.00 0.00 0.00 93 1012.8